Skip Page Navigation
NASA JPL Caltech
NASA Logo - Jet Propulsion Laboratory + View the NASA Portal
+ Center for Near-Earth Object Studies
JPL Home Earth Solar System Stars & Galaxies Technology
JPL Solar System Dynamics
BODIES ORBITS EPHEMERIDES TOOLS PHYSICAL DATA DISCOVERY FAQ SITE MAP
IMPORTANT: The SSD Announcement email list is now available. Major changes are coming in the near future, including possible hostname and/or URL changes. To be notified of such changes, subscribe to this email list.

Please visit this page for more details.


JPL Small-Body Database Browser
Search: [ help ]  
100019 Gregorianik (1989 UO7)
Classification: Main-belt Asteroid          SPK-ID: 2100019
Ephemeris | Orbit Diagram | Orbital Elements | Mission Design | Physical Parameters | Discovery Circumstances | Close-Approach Data ]

[ show orbit diagram ]
Orbital Elements at Epoch 2459000.5 (2020-May-31.0) TDB
Reference: JPL 27 (heliocentric ecliptic J2000)
 Element Value Uncertainty (1-sigma)   Units 
e .2361521576690188 6.8382e-08  
a 2.531985438649557 8.4332e-09 au
q 1.934051614125927 1.7615e-07 au
i 2.918392930485628 6.7598e-06 deg
node 198.1919597127687 6.8558e-05 deg
peri 191.5659179188126 6.9707e-05 deg
M 219.6346674395009 1.2312e-05 deg
tp 2459574.282886134442
(2021-Dec-25.78288613)
5.2338e-05 TDB
period 1471.601536079919
4.03
7.3522e-06
2.013e-08
d
yr
n .2446314380446863 1.2222e-09 deg/d
Q 3.129919263173187 1.0425e-08 au
  Orbit Determination Parameters
   # obs. used (total)      1007  
   data-arc span      11054 days (30.26 yr)  
   first obs. used      1989-10-23  
   last obs. used      2020-01-28  
   planetary ephem.      DE431  
   SB-pert. ephem.      SB431-N16  
   condition code      0  
   norm. resid. RMS      .52154  
   source      ORB  
   producer      Otto Matic  
   solution date      2020-Feb-24 00:59:33  

Additional Information
 Earth MOID = .939413 au 
 Jupiter MOID = 2.3155 au 
 T_jup = 3.409 
[ show covariance matrix ]

Ephemeris | Orbit Diagram | Orbital Elements | Mission Design | Physical Parameters | Discovery Circumstances | Close-Approach Data ]

Physical Parameter Table
Parameter Symbol Value Units Sigma Reference Notes
absolute magnitude H 15.6   n/a MPO381884  

100019 Gregorianik           Discovered 1989 Oct. 23 by F. Börngen at Tautenburg.
The Gregorian Chant (German shortening Gregorianik) is monophonic liturgical singing with a plain melody, in Europe in common use since the earliest Middle Ages. The chant is sung by a choir or by soloists. It is still sung in churches today.
NOTE: some special characters may not display properly (any characters within {} are an attempt to place the proper accent above a character)
Reference: 20060219/MPCPages.arcLast Updated: 2010-06-03

[ show close-approach data ]
Alternate Designations
 1989 UO7 = 2001 QV246 
Ephemeris | Orbit Diagram | Orbital Elements | Mission Design | Physical Parameters | Discovery Circumstances | Close-Approach Data ]
ABOUT SSD CREDITS/AWARDS PRIVACY/COPYRIGHT GLOSSARY LINKS
FirstGov 2020-Apr-05 17:31 UT
(server date/time)  
NASA Home Page
Site Manager:   Ryan S. Park
Webmaster  Alan B. Chamberlin